Weather History for Big Bear City, CA

Change the Weather History Date:

Saturday, March 16, 2013

  Actual Average (KBUO) Record (KBUO)
Temperature  
Mean Temperature 46 °F -  
Max Temperature 60 °F 65 °F 64 °F (1997)
Min Temperature 33 °F 43 °F 35 °F (1999)
Degree Days  
Heating Degree Days 18    
Moisture  
Dew Point 17 °F    
Average Humidity 33    
Maximum Humidity 70    
Minimum Humidity 13    
Precipitation  
Precipitation 0.00 in - - ()
Sea Level Pressure  
Sea Level Pressure 30.10 in    
Wind  
Wind Speed 5 mph (West)    
Max Wind Speed 16 mph    
Max Gust Speed 21 mph    
Visibility 10 miles    
Events      
Averages and records for this station are not official NWS values.
T = Trace of Precipitation, MM = Missing Value Source: NWS Daily Summary

Daily Weather History Graph

Daily Weather History Graph

Search for Another Location

Airport:

Trip Planner

Search our weather history database for the weather conditions in past years. The results will help you decide how hot, cold, wet, or windy it might be!

Date:

Astronomy

Mar. 16, 2013 Rise Set
Actual Time 6:56 AM PDT 6:56 PM PDT
Civil Twilight 6:31 AM PDT 7:21 PM PDT
Nautical Twilight 6:02 AM PDT 7:50 PM PDT
Astronomical Twilight 5:32 AM PDT 8:19 PM PDT
Moon 9:42 AM PDT (3/16) 11:55 PM PDT (3/16)
Length of Visible Light 12h 50m
Length of Day
12h 00m
Waxing Crescent, 24% of the Moon is Illuminated
Mar 16
Waxing Crescent
Mar 19
First Quarter
Mar 27
Full
Apr 2
Last Quarter
Apr 10
New

Hourly Weather History & Observations

Time (PDT) Temp. Windchill Dew Point Humidity Pressure Visibility Wind Dir Wind Speed Gust Speed Precip Events Conditions
12:15 AM 41.0 °F 38.0 °F 28.4 °F 61% 30.14 in 10.0 mi WSW 4.6 mph - N/A   Clear
12:35 AM 37.4 °F - 28.4 °F 70% 30.14 in 10.0 mi Calm Calm - N/A   Clear
12:55 AM 39.2 °F 35.9 °F 28.4 °F 65% 30.13 in 10.0 mi WSW 4.6 mph - N/A   Clear
1:15 AM 37.4 °F 33.8 °F 28.4 °F 70% 30.13 in 10.0 mi WSW 4.6 mph - N/A   Clear
1:35 AM 37.4 °F 33.8 °F 28.4 °F 70% 30.12 in 10.0 mi WSW 4.6 mph - N/A   Clear
1:55 AM 37.4 °F 33.8 °F 28.4 °F 70% 30.12 in 10.0 mi WSW 4.6 mph - N/A   Clear
2:15 AM 35.6 °F 30.7 °F 26.6 °F 70% 30.11 in 10.0 mi WSW 5.8 mph - N/A   Clear
2:35 AM 39.2 °F 35.0 °F 28.4 °F 65% 30.11 in 10.0 mi West 5.8 mph - N/A   Clear
2:55 AM 41.0 °F 37.1 °F 26.6 °F 57% 30.11 in 10.0 mi West 5.8 mph - N/A   Clear
3:15 AM 42.8 °F 39.3 °F 28.4 °F 57% 30.10 in 10.0 mi WSW 5.8 mph - N/A   Clear
3:35 AM 42.8 °F 39.3 °F 23.0 °F 46% 30.09 in 10.0 mi West 5.8 mph - N/A   Clear
3:55 AM 42.8 °F 38.6 °F 19.4 °F 39% 30.09 in 10.0 mi WSW 6.9 mph - N/A   Clear
4:15 AM 46.4 °F 44.3 °F 14.0 °F 27% 30.09 in 10.0 mi SW 4.6 mph - N/A   Clear
4:35 AM 46.4 °F 42.4 °F 14.0 °F 27% 30.08 in 10.0 mi SW 8.1 mph - N/A   Clear
4:55 AM 46.4 °F 42.9 °F 14.0 °F 27% 30.08 in 10.0 mi SW 6.9 mph - N/A   Clear
5:15 AM 42.8 °F 41.1 °F 17.6 °F 36% 30.09 in 10.0 mi NE 3.5 mph - N/A   Clear
5:35 AM 39.2 °F - 19.4 °F 45% 30.09 in 10.0 mi Calm Calm - N/A   Clear
5:55 AM 39.2 °F - 19.4 °F 45% 30.09 in 10.0 mi Calm Calm - N/A   Clear
6:15 AM 35.6 °F - 21.2 °F 56% 30.09 in 10.0 mi Calm Calm - N/A   Clear
6:35 AM 35.6 °F - 21.2 °F 56% 30.09 in 10.0 mi Calm Calm - N/A   Clear
6:55 AM 35.6 °F - 21.2 °F 56% 30.10 in 10.0 mi Calm Calm - N/A   Clear
7:15 AM 33.8 °F - 21.2 °F 60% 30.11 in 10.0 mi Calm Calm - N/A   Clear
7:35 AM 33.8 °F - 21.2 °F 60% 30.11 in 10.0 mi Calm Calm - N/A   Clear
7:55 AM 33.8 °F - 21.2 °F 60% 30.11 in 10.0 mi Calm Calm - N/A   Clear
8:15 AM 37.4 °F - 23.0 °F 56% 30.11 in 10.0 mi Calm Calm - N/A   Clear
8:35 AM 42.8 °F - 23.0 °F 46% 30.12 in 10.0 mi Calm Calm - N/A   Clear
8:55 AM 48.2 °F - 21.2 °F 34% 30.12 in 10.0 mi West 4.6 mph - N/A   Clear
9:15 AM 51.8 °F - 19.4 °F 28% 30.11 in 10.0 mi West 8.1 mph - N/A   Clear
9:35 AM 51.8 °F - 17.6 °F 26% 30.11 in 10.0 mi WSW 3.5 mph - N/A   Clear
9:55 AM 53.6 °F - 17.6 °F 24% 30.11 in 10.0 mi Calm Calm - N/A   Clear
10:15 AM 57.2 °F - 15.8 °F 20% 30.11 in 10.0 mi Calm Calm - N/A   Clear
10:35 AM 57.2 °F - 17.6 °F 21% 30.11 in 10.0 mi West 4.6 mph - N/A   Clear
10:55 AM 59.0 °F - 19.4 °F 22% 30.11 in 10.0 mi West 8.1 mph - N/A   Clear
11:15 AM 59.0 °F - 15.8 °F 19% 30.11 in 10.0 mi NE 6.9 mph - N/A   Clear
11:55 AM 59.0 °F - 12.2 °F 16% 30.10 in 10.0 mi East 6.9 mph - N/A   Clear
12:15 PM 60.8 °F - 12.2 °F 15% 30.11 in 10.0 mi North 8.1 mph - N/A   Clear
12:35 PM 59.0 °F - 12.2 °F 16% 30.11 in 10.0 mi NW 8.1 mph 17.3 mph N/A   Clear
12:55 PM 59.0 °F - 12.2 °F 16% 30.11 in 10.0 mi Calm Calm - N/A   Clear
1:15 PM 59.0 °F - 10.4 °F 15% 30.11 in 10.0 mi North 5.8 mph - N/A   Clear
1:35 PM 59.0 °F - 12.2 °F 16% 30.10 in 10.0 mi WNW 4.6 mph - N/A   Clear
1:55 PM 60.8 °F - 10.4 °F 14% 30.09 in 10.0 mi ENE 5.8 mph - N/A   Clear
2:15 PM 60.8 °F - 10.4 °F 14% 30.09 in 10.0 mi West 8.1 mph - N/A   Clear
2:35 PM 60.8 °F - 10.4 °F 14% 30.08 in 10.0 mi West 12.7 mph 17.3 mph N/A   Clear
2:55 PM 60.8 °F - 10.4 °F 14% 30.08 in 10.0 mi NNW 8.1 mph 11.5 mph N/A   Clear
3:15 PM 60.8 °F - 10.4 °F 14% 30.07 in 10.0 mi NW 4.6 mph - N/A   Clear
3:35 PM 60.8 °F - 10.4 °F 14% 30.07 in 10.0 mi NW 8.1 mph - N/A   Clear
3:55 PM 60.8 °F - 10.4 °F 14% 30.07 in 10.0 mi NNW 5.8 mph - N/A   Clear
4:15 PM 60.8 °F - 10.4 °F 14% 30.06 in 10.0 mi NW 8.1 mph - N/A   Clear
4:35 PM 60.8 °F - 8.6 °F 13% 30.06 in 10.0 mi West 9.2 mph - N/A   Clear
4:55 PM 60.8 °F - 14.0 °F 16% 30.07 in 10.0 mi West 12.7 mph 19.6 mph N/A   Clear
5:15 PM 59.0 °F - 12.2 °F 16% 30.07 in 10.0 mi West 10.4 mph 17.3 mph N/A   Clear
5:35 PM 59.0 °F - 17.6 °F 20% 30.07 in 10.0 mi WSW 10.4 mph 18.4 mph N/A   Clear
5:55 PM 57.2 °F - 14.0 °F 18% 30.08 in 10.0 mi West 16.1 mph 20.7 mph N/A   Clear
6:15 PM 55.4 °F - 15.8 °F 21% 30.08 in 10.0 mi WSW 10.4 mph 19.6 mph N/A   Clear
6:35 PM 53.6 °F - 14.0 °F 21% 30.08 in 10.0 mi WSW 12.7 mph 18.4 mph N/A   Clear
6:55 PM 51.8 °F - 17.6 °F 26% 30.08 in 10.0 mi West 10.4 mph 18.4 mph N/A   Clear
7:15 PM 51.8 °F - 14.0 °F 22% 30.08 in 10.0 mi WSW 9.2 mph - N/A   Clear
7:35 PM 50.0 °F - 14.0 °F 24% 30.08 in 10.0 mi SSW 3.5 mph 17.3 mph N/A   Clear
7:55 PM 50.0 °F - 14.0 °F 24% 30.08 in 10.0 mi WSW 5.8 mph - N/A   Clear
8:15 PM 48.2 °F - 14.0 °F 25% 30.09 in 10.0 mi WSW 5.8 mph - N/A   Clear
8:35 PM 50.0 °F - 12.2 °F 22% 30.10 in 10.0 mi West 11.5 mph - N/A   Clear
8:55 PM 46.4 °F 42.9 °F 12.2 °F 25% 30.10 in 10.0 mi WSW 6.9 mph - N/A   Clear
9:15 PM 44.6 °F 42.2 °F 14.0 °F 29% 30.10 in 10.0 mi SSW 4.6 mph - N/A   Clear
9:35 PM 44.6 °F 41.4 °F 12.2 °F 27% 30.10 in 10.0 mi West 5.8 mph - N/A   Clear
9:55 PM 44.6 °F 39.2 °F 12.2 °F 27% 30.10 in 10.0 mi West 10.4 mph 16.1 mph N/A   Clear
10:15 PM 44.6 °F 38.8 °F 14.0 °F 29% 30.09 in 10.0 mi West 11.5 mph - N/A   Clear
10:35 PM 42.8 °F 38.6 °F 12.2 °F 29% 30.09 in 10.0 mi WNW 6.9 mph - N/A   Clear
10:55 PM 42.8 °F 38.6 °F 12.2 °F 29% 30.08 in 10.0 mi West 6.9 mph - N/A   Clear
11:15 PM 44.6 °F - 12.2 °F 27% 30.09 in 10.0 mi Calm Calm - N/A   Clear
11:35 PM 44.6 °F 42.2 °F 10.4 °F 25% 30.10 in 10.0 mi NW 4.6 mph - N/A   Clear
11:55 PM 41.0 °F 36.4 °F 12.2 °F 31% 30.09 in 10.0 mi SSW 6.9 mph - N/A   Clear